User: anonymous   Login
Location: Cincinnati Observatory Center
(39.1389°N, 84.4225°W)
Time: 02:43:43
(UTC-04:00)
Language:

COSMOS 2428 - Orbit

View from above orbital plane
View from above orbital plane
View from above satellite
View from above satellite

Ground track
Ground track

The orbit data is extracted from the following two-line orbital elements,

1 31792U 07029A   16181.84708071  .00000137  00000-0  10000-3 0  9997
2 31792  70.9384  71.6899 0007541  81.8075 345.5627 14.12363465464327
Epoch (UTC): 29 June 2016 20:19:47
Eccentricity: 0.0007541
inclination: 70.9384°
perigee height: 846 km
apogee height: 857 km
right ascension of ascending node: 71.6899°
argument of perigee: 81.8075°
revolutions per day: 14.12363465
mean anomaly at epoch: 345.5627°
orbit number at epoch: 46432

The dashed part of the orbit path shows where the satellite is in the earth's shadow,  

DLR